TimeEDT,TemperatureF,Dew PointF,Humidity,Sea Level PressureIn,VisibilityMPH,Wind Direction,Wind SpeedMPH,Gust SpeedMPH,PrecipitationIn,Events,Conditions,WindDirDegrees,DateUTC
12:15 AM,34.9,18.3,51,29.95,10.0,Calm,Calm,-,N/A,,Clear,0,2013-04-05 04:15:00
12:35 AM,33.1,19.8,58,29.95,10.0,Calm,Calm,-,N/A,,Scattered Clouds,0,2013-04-05 04:35:00
12:55 AM,36.9,21.7,54,29.95,10.0,Calm,Calm,-,N/A,,Mostly Cloudy,0,2013-04-05 04:55:00
1:15 AM,36.0,22.8,59,29.95,10.0,Calm,Calm,-,N/A,,Mostly Cloudy,0,2013-04-05 05:15:00
1:35 AM,36.0,22.3,58,29.95,10.0,Calm,Calm,-,N/A,,Overcast,0,2013-04-05 05:35:00
1:55 AM,37.8,23.9,57,29.94,10.0,Calm,Calm,-,N/A,,Overcast,0,2013-04-05 05:55:00
2:15 AM,38.7,25.2,58,29.94,10.0,Calm,Calm,-,N/A,,Overcast,0,2013-04-05 06:15:00
2:35 AM,39.2,25.7,58,29.94,10.0,Calm,Calm,-,N/A,,Overcast,0,2013-04-05 06:35:00
2:55 AM,39.4,26.2,59,29.94,10.0,Calm,Calm,-,N/A,,Overcast,0,2013-04-05 06:55:00
3:15 AM,39.4,27.0,61,29.94,10.0,Calm,Calm,-,N/A,,Overcast,0,2013-04-05 07:15:00
3:35 AM,40.3,28.4,63,29.94,10.0,Calm,Calm,-,N/A,,Overcast,0,2013-04-05 07:35:00
3:55 AM,39.2,25.2,57,29.95,10.0,Calm,Calm,-,N/A,,Overcast,0,2013-04-05 07:55:00
4:15 AM,38.5,25.0,58,29.95,10.0,Calm,Calm,-,N/A,,Mostly Cloudy,0,2013-04-05 08:15:00
4:35 AM,38.3,24.1,57,29.95,10.0,Calm,Calm,-,N/A,,Overcast,0,2013-04-05 08:35:00
4:55 AM,38.7,25.5,59,29.96,10.0,Calm,Calm,-,N/A,,Overcast,0,2013-04-05 08:55:00
5:15 AM,38.7,27.0,63,29.97,10.0,Calm,Calm,-,N/A,,Overcast,0,2013-04-05 09:15:00
5:35 AM,38.3,25.2,59,29.98,10.0,Calm,Calm,-,N/A,,Overcast,0,2013-04-05 09:35:00
5:55 AM,39.6,24.3,54,29.98,10.0,NNW,3.5,-,N/A,,Overcast,340,2013-04-05 09:55:00
6:15 AM,41.5,23.7,49,30.00,10.0,ENE,8.1,-,N/A,,Mostly Cloudy,70,2013-04-05 10:15:00
6:35 AM,41.2,29.1,62,30.01,10.0,ENE,9.2,-,N/A,,Mostly Cloudy,60,2013-04-05 10:35:00
6:55 AM,40.6,30.6,67,30.03,10.0,NE,4.6,-,N/A,,Overcast,50,2013-04-05 10:55:00
7:15 AM,40.5,30.9,69,30.04,10.0,NE,6.9,-,N/A,,Overcast,50,2013-04-05 11:15:00
7:35 AM,39.4,30.9,72,30.05,10.0,NE,4.6,-,N/A,,Mostly Cloudy,50,2013-04-05 11:35:00
7:55 AM,38.8,31.1,74,30.07,7.0,NNE,3.5,-,N/A,,Scattered Clouds,20,2013-04-05 11:55:00
8:15 AM,38.5,31.1,75,30.08,7.0,NNE,8.1,-,N/A,,Clear,20,2013-04-05 12:15:00
8:35 AM,39.0,31.1,73,30.09,7.0,NNE,5.8,-,N/A,,Mostly Cloudy,30,2013-04-05 12:35:00
8:55 AM,39.6,30.6,70,30.10,7.0,NNE,6.9,-,N/A,,Mostly Cloudy,30,2013-04-05 12:55:00
9:15 AM,39.4,29.5,68,30.10,10.0,North,8.1,16.1,N/A,,Scattered Clouds,10,2013-04-05 13:15:00
9:35 AM,42.1,28.6,59,30.10,10.0,North,9.2,-,N/A,,Clear,10,2013-04-05 13:35:00
9:55 AM,42.8,25.5,51,30.11,10.0,NNE,10.4,-,N/A,,Clear,20,2013-04-05 13:55:00
10:15 AM,43.7,26.8,51,30.11,10.0,North,9.2,-,N/A,,Clear,350,2013-04-05 14:15:00
10:35 AM,44.2,23.7,44,30.11,10.0,North,6.9,-,N/A,,Clear,360,2013-04-05 14:35:00
10:55 AM,44.6,23.7,44,30.12,10.0,Calm,Calm,-,N/A,,Clear,0,2013-04-05 14:55:00
11:15 AM,46.0,22.5,39,30.12,10.0,NE,4.6,-,N/A,,Clear,50,2013-04-05 15:15:00
11:35 AM,46.4,21.6,37,30.12,10.0,NNW,6.9,-,N/A,,Clear,340,2013-04-05 15:35:00
11:55 AM,46.4,22.8,39,30.13,10.0,North,9.2,-,N/A,,Clear,350,2013-04-05 15:55:00
12:15 PM,47.1,22.6,38,30.12,10.0,North,4.6,-,N/A,,Clear,360,2013-04-05 16:15:00
12:35 PM,47.7,21.7,36,30.12,10.0,NNW,6.9,-,N/A,,Clear,340,2013-04-05 16:35:00
12:55 PM,49.1,20.1,32,30.12,10.0,NW,8.1,17.3,N/A,,Clear,310,2013-04-05 16:55:00
1:15 PM,49.3,18.1,29,30.12,10.0,North,10.4,16.1,N/A,,Clear,360,2013-04-05 17:15:00
1:35 PM,49.5,17.1,28,30.12,10.0,NNE,11.5,21.9,N/A,,Clear,20,2013-04-05 17:35:00
1:55 PM,50.4,16.0,26,30.11,10.0,NNW,11.5,16.1,N/A,,Clear,330,2013-04-05 17:55:00
2:15 PM,50.2,14.0,24,30.11,10.0,NNW,13.8,20.7,N/A,,Clear,340,2013-04-05 18:15:00
2:35 PM,50.7,11.7,21,30.11,10.0,NNW,8.1,-,N/A,,Clear,340,2013-04-05 18:35:00
2:55 PM,50.5,11.3,21,30.11,10.0,NW,11.5,21.9,N/A,,Clear,320,2013-04-05 18:55:00
3:15 PM,51.3,10.4,19,30.10,10.0,NNW,10.4,-,N/A,,Clear,340,2013-04-05 19:15:00
3:35 PM,51.3,10.6,20,30.10,10.0,NNW,9.2,-,N/A,,Clear,330,2013-04-05 19:35:00
3:55 PM,51.8,10.8,19,30.10,10.0,NNW,8.1,18.4,N/A,,Clear,330,2013-04-05 19:55:00
4:15 PM,51.6,11.1,20,30.09,10.0,NW,11.5,17.3,N/A,,Clear,310,2013-04-05 20:15:00
4:35 PM,51.3,10.2,19,30.09,10.0,NW,9.2,-,N/A,,Clear,320,2013-04-05 20:35:00
4:55 PM,51.6,9.9,19,30.09,10.0,NNW,6.9,-,N/A,,Clear,330,2013-04-05 20:55:00
5:15 PM,51.1,11.5,20,30.09,10.0,NNW,9.2,-,N/A,,Clear,340,2013-04-05 21:15:00
5:35 PM,50.7,11.7,21,30.09,10.0,NNW,10.4,-,N/A,,Clear,340,2013-04-05 21:35:00
5:55 PM,50.9,11.1,20,30.10,10.0,North,10.4,-,N/A,,Clear,350,2013-04-05 21:55:00
6:15 PM,50.7,12.0,21,30.11,10.0,NNW,9.2,-,N/A,,Clear,340,2013-04-05 22:15:00
6:35 PM,48.4,18.0,30,30.12,10.0,East,6.9,-,N/A,,Clear,80,2013-04-05 22:35:00
6:55 PM,45.7,18.7,34,30.13,10.0,East,5.8,-,N/A,,Clear,100,2013-04-05 22:55:00
7:15 PM,44.6,18.9,36,30.14,10.0,East,8.1,-,N/A,,Clear,80,2013-04-05 23:15:00
7:35 PM,43.5,19.0,38,30.14,10.0,East,8.1,-,N/A,,Clear,90,2013-04-05 23:35:00
7:55 PM,42.3,20.7,42,30.14,10.0,East,4.6,-,N/A,,Clear,90,2013-04-05 23:55:00
8:15 PM,41.4,21.0,44,30.15,10.0,East,5.8,-,N/A,,Clear,80,2013-04-06 00:15:00
8:35 PM,40.5,21.9,48,30.17,10.0,East,6.9,-,N/A,,Clear,100,2013-04-06 00:35:00
8:55 PM,40.1,23.5,52,30.17,10.0,East,5.8,-,N/A,,Clear,90,2013-04-06 00:55:00
9:15 PM,39.2,24.6,56,30.18,10.0,East,5.8,-,N/A,,Clear,90,2013-04-06 01:15:00
9:35 PM,38.7,26.6,62,30.19,10.0,East,8.1,-,N/A,,Clear,100,2013-04-06 01:35:00
9:55 PM,38.1,25.7,61,30.20,10.0,ESE,4.6,-,N/A,,Clear,120,2013-04-06 01:55:00
10:15 PM,37.8,24.8,60,30.20,10.0,ESE,5.8,-,N/A,,Clear,120,2013-04-06 02:15:00
10:35 PM,37.6,26.1,63,30.20,10.0,ESE,6.9,-,N/A,,Clear,110,2013-04-06 02:35:00
10:55 PM,37.4,25.7,63,30.20,10.0,ESE,8.1,-,N/A,,Clear,110,2013-04-06 02:55:00
11:15 PM,37.0,25.3,63,30.20,10.0,ESE,6.9,-,N/A,,Clear,120,2013-04-06 03:15:00
11:35 PM,36.5,25.2,64,30.21,10.0,SE,6.9,-,N/A,,Clear,130,2013-04-06 03:35:00
11:55 PM,36.0,25.2,65,30.21,10.0,ESE,5.8,-,N/A,,Clear,120,2013-04-06 03:55:00